| time (UTC) | temp F | wind direction | speed knots | gust knots | rain 1hr in | rain 24hr in | rain mn in | humidity % | barometer mb |
| 20260506131616 | 38 | 314 | 10.4 | 15.6 | 0.00 | 0.00 | 0.00 | 60 | 1016.5 |
| 20260506130058 | 37 | 319 | 6.1 | 8.7 | 0.00 | 0.00 | 0.00 | 62 | 1016.4 |
| 20260506124554 | 37 | 285 | 5.2 | 7.8 | 0.00 | 0.00 | 0.00 | 62 | 1016.3 |
| 20260506123051 | 37 | 293 | 4.3 | 7.8 | 0.00 | 0.00 | 0.00 | 63 | 1015.9 |
| 20260506121554 | 36 | 300 | 3.5 | 6.1 | 0.00 | 0.00 | 0.00 | 65 | 1015.7 |
| 20260506120057 | 36 | 294 | 3.5 | 7.0 | 0.00 | 0.00 | 0.00 | 65 | 1015.5 |
| 20260506114541 | 36 | 333 | 3.5 | 8.7 | 0.00 | 0.00 | 0.00 | 65 | 1015.3 |
| 20260506113038 | 36 | 282 | 5.2 | 8.7 | 0.00 | 0.00 | 0.00 | 63 | 1015.1 |
| 20260506111544 | 36 | 271 | 5.2 | 10.4 | 0.00 | 0.00 | 0.00 | 63 | 1014.9 |
| 20260506110035 | 36 | 267 | 4.3 | 7.0 | 0.00 | 0.00 | 0.00 | 63 | 1014.8 |
| 20260506104542 | 36 | 273 | 5.2 | 7.8 | 0.00 | 0.00 | 0.00 | 63 | 1014.7 |
| 20260506103042 | 36 | 266 | 4.3 | 7.0 | 0.00 | 0.00 | 0.00 | 66 | 1014.6 |
| 20260506101534 | 35 | 298 | 3.5 | 5.2 | 0.00 | 0.00 | 0.00 | 66 | 1014.6 |
| 20260506100033 | 35 | 278 | 3.5 | 6.1 | 0.00 | 0.00 | 0.00 | 67 | 1014.8 |
| 20260506094532 | 34 | 268 | 2.6 | 6.1 | 0.00 | 0.00 | 0.00 | 68 | 1014.8 |
| 20260506093031 | 35 | 264 | 2.6 | 5.2 | 0.00 | 0.00 | 0.00 | 68 | 1014.8 |
| 20260506091528 | 35 | 284 | 2.6 | 4.3 | 0.00 | 0.00 | 0.00 | 66 | 1014.6 |
| 20260506090024 | 36 | 273 | 2.6 | 5.2 | 0.00 | 0.00 | 0.00 | 66 | 1014.6 |
| 20260506084547 | 36 | 311 | 5.2 | 7.8 | 0.00 | 0.00 | 0.00 | 65 | 1014.5 |
| 20260506083023 | 36 | 302 | 4.3 | 7.8 | 0.00 | 0.00 | 0.00 | 65 | 1014.5 |
| 20260506081528 | 36 | 297 | 5.2 | 8.7 | 0.00 | 0.00 | 0.00 | 65 | 1014.4 |
| 20260506073019 | 37 | 295 | 6.1 | 9.6 | 0.00 | 0.00 | 0.00 | 64 | 1014.5 |
| 20260506071517 | 37 | 300 | 6.1 | 7.8 | 0.00 | 0.00 | 0.00 | 63 | 1014.5 |
| 20260506061511 | 37 | 306 | 5.2 | 7.0 | 0.00 | 0.00 | 0.00 | 65 | 1014.4 |
| 20260506050104 | 38 | 330 | 2.6 | 7.8 | 0.00 | 0.00 | 0.00 | 62 | 1014.1 |
| 20260506044559 | 38 | 340 | 5.2 | 7.8 | 0.00 | 0.00 | 0.00 | 62 | 1014.1 |
| 20260506044503 | 38 | 327 | 5.2 | 7.8 | 0.00 | 0.00 | 0.00 | 62 | 1014.1 |
| 20260506043058 | 38 | 314 | 3.5 | 6.1 | 0.00 | 0.00 | 0.00 | 62 | 1014.0 |
| 20260506041608 | 38 | 314 | 2.6 | 5.2 | 0.00 | 0.00 | 0.00 | 60 | 1014.0 |
| 20260506040059 | 39 | 309 | 3.5 | 6.1 | 0.00 | 0.00 | 0.00 | 58 | 1014.1 |
| 20260506034557 | 39 | 298 | 4.3 | 6.1 | 0.00 | 0.00 | 0.00 | 59 | 1013.9 |
| 20260506033053 | 39 | 309 | 4.3 | 7.0 | 0.00 | 0.00 | 0.00 | 58 | 1013.7 |
| 20260506031555 | 39 | 311 | 3.5 | 5.2 | 0.00 | 0.00 | 0.00 | 58 | 1013.5 |
| 20260506030052 | 39 | 321 | 3.5 | 5.2 | 0.00 | 0.00 | 0.00 | 57 | 1013.4 |
| 20260506024549 | 40 | 328 | 4.3 | 7.0 | 0.00 | 0.00 | 0.00 | 54 | 1013.2 |
| 20260506023102 | 41 | 344 | 6.1 | 12.2 | 0.00 | 0.00 | 0.00 | 53 | 1013.0 |
| 20260506021607 | 41 | 359 | 4.3 | 7.8 | 0.00 | 0.00 | 0.00 | 54 | 1012.7 |
| 20260506020044 | 42 | 342 | 4.3 | 7.0 | 0.00 | 0.00 | 0.00 | 52 | 1012.5 |
| 20260506014542 | 42 | 337 | 4.3 | 8.7 | 0.00 | 0.00 | 0.00 | 53 | 1012.3 |
| 20260506013044 | 42 | 329 | 5.2 | 9.6 | 0.00 | 0.00 | 0.00 | 51 | 1012.3 |
| 20260506011548 | 43 | 340 | 6.1 | 8.7 | 0.00 | 0.00 | 0.00 | 51 | 1012.2 |
| 20260506010040 | 43 | 353 | 4.3 | 10.4 | 0.00 | 0.00 | 0.00 | 50 | 1012.2 |
| 20260506004538 | 43 | 359 | 7.0 | 13.0 | 0.00 | 0.00 | 0.00 | 50 | 1012.1 |
| 20260506003039 | 44 | 325 | 7.8 | 11.3 | 0.00 | 0.00 | 0.00 | 49 | 1012.0 |
| 20260506001537 | 44 | 345 | 6.1 | 12.2 | 0.00 | 0.00 | 0.00 | 48 | 1011.8 |
| 20260506000035 | 45 | 324 | 7.8 | 15.6 | 0.00 | 0.00 | 0.00 | 47 | 1011.8 |
| 20260505234535 | 45 | 321 | 9.6 | 14.8 | 0.00 | 0.00 | 0.00 | 46 | 1011.7 |
| 20260505233035 | 45 | 339 | 9.6 | 16.5 | 0.00 | 0.00 | 0.00 | 46 | 1011.5 |
| 20260505231547 | 45 | 292 | 11.3 | 18.2 | 0.00 | 0.00 | 0.00 | 44 | 1011.4 |
| 20260505230034 | 45 | 301 | 8.7 | 14.8 | 0.00 | 0.00 | 0.00 | 45 | 1011.4 |
| 20260505224532 | 45 | 295 | 12.2 | 18.2 | 0.00 | 0.00 | 0.00 | 44 | 1011.3 |
| 20260505223031 | 46 | 301 | 12.2 | 16.5 | 0.00 | 0.00 | 0.00 | 45 | 1011.5 |
| 20260505221530 | 46 | 309 | 13.0 | 16.5 | 0.00 | 0.00 | 0.00 | 44 | 1011.4 |
| 20260505220032 | 46 | 328 | 13.0 | 19.1 | 0.00 | 0.00 | 0.00 | 43 | 1011.3 |
| 20260505214540 | 46 | 309 | 9.6 | 15.6 | 0.00 | 0.00 | 0.00 | 43 | 1011.3 |
| 20260505213036 | 46 | 319 | 13.9 | 18.2 | 0.00 | 0.00 | 0.00 | 41 | 1011.3 |
| 20260505211528 | 46 | 301 | 10.4 | 19.1 | 0.00 | 0.00 | 0.00 | 42 | 1011.3 |
| 20260505210028 | 47 | 321 | 12.2 | 16.5 | 0.00 | 0.00 | 0.00 | 40 | 1011.2 |
| 20260505204527 | 47 | 305 | 10.4 | 17.4 | 0.00 | 0.00 | 0.00 | 42 | 1011.2 |
| 20260505203040 | 46 | 302 | 11.3 | 19.1 | 0.00 | 0.00 | 0.00 | 42 | 1011.2 |
| 20260505201532 | 47 | 321 | 11.3 | 17.4 | 0.00 | 0.00 | 0.00 | 42 | 1011.3 |
| 20260505200026 | 47 | 334 | 9.6 | 16.5 | 0.00 | 0.00 | 0.00 | 42 | 1011.4 |
| 20260505194526 | 47 | 298 | 9.6 | 18.2 | 0.00 | 0.00 | 0.00 | 42 | 1011.3 |
| 20260505193031 | 47 | 300 | 13.0 | 16.5 | 0.00 | 0.00 | 0.00 | 40 | 1011.3 |
| 20260505191524 | 46 | 321 | 15.6 | 20.9 | 0.00 | 0.00 | 0.00 | 40 | 1011.1 |
| 20260505190030 | 47 | 335 | 10.4 | 19.1 | 0.00 | 0.00 | 0.00 | 39 | 1011.0 |
| 20260505184526 | 47 | 283 | 7.8 | 15.6 | 0.00 | 0.00 | 0.00 | 39 | 1010.9 |
| 20260505183025 | 47 | 304 | 11.3 | 20.0 | 0.00 | 0.00 | 0.00 | 39 | 1011.0 |
| 20260505181522 | 46 | 322 | 10.4 | 14.8 | 0.00 | 0.00 | 0.00 | 40 | 1011.1 |
| 20260505180022 | 47 | 359 | 9.6 | 19.1 | 0.00 | 0.00 | 0.00 | 42 | 1010.9 |
| 20260505174528 | 46 | 323 | 10.4 | 17.4 | 0.00 | 0.00 | 0.00 | 43 | 1010.8 |
| 20260505173020 | 46 | 311 | 12.2 | 22.6 | 0.00 | 0.00 | 0.00 | 42 | 1011.0 |
| 20260505171520 | 46 | 297 | 14.8 | 20.0 | 0.00 | 0.00 | 0.00 | 41 | 1011.0 |
| 20260505170020 | 46 | 330 | 11.3 | 17.4 | 0.00 | 0.00 | 0.00 | 41 | 1010.7 |
| 20260505164517 | 46 | 330 | 10.4 | 20.0 | 0.00 | 0.00 | 0.00 | 42 | 1010.6 |
| 20260505163016 | 46 | 309 | 10.4 | 19.1 | 0.00 | 0.00 | 0.00 | 39 | 1010.5 |
| 20260505161514 | 46 | 333 | 13.9 | 20.9 | 0.00 | 0.00 | 0.00 | 40 | 1010.3 |
| 20260505153009 | 47 | 307 | 14.8 | 20.0 | 0.00 | 0.00 | 0.00 | 39 | 1010.0 |
| 20260505151506 | 47 | 316 | 13.0 | 21.7 | 0.00 | 0.00 | 0.00 | 40 | 1010.0 |